Weather History for Estherville, IA

Change the Weather History Date:

Friday, January 20, 2012

  Actual Average Record
Temperature  
Mean Temperature -3 °F 16 °F  
Max Temperature 7 °F 24 °F 44 °F (1981)
Min Temperature -13 °F 7 °F -26 °F (1970)
Degree Days  
Heating Degree Days 68 49  
Month to date heating degree days 855 993  
Since 1 July heating degree days 3541 4136  
Cooling Degree Days 0 0  
Month to date cooling degree days 0 0  
Year to date cooling degree days 0 0  
Moisture  
Dew Point -2 °F    
Average Humidity 77    
Maximum Humidity 92    
Minimum Humidity 62    
Precipitation  
Precipitation 0.18 in 0.02 in 0.49 in (1952)
Month to date precipitation 0.18 0.23  
Year to date precipitation 0.18  
Sea Level Pressure  
Sea Level Pressure 30.12 in    
Wind  
Wind Speed 9 mph (East)    
Max Wind Speed 16 mph    
Max Gust Speed 20 mph    
Visibility 4 miles    
Events Fog , Snow    
T = Trace of Precipitation, MM = Missing Value Source: NWS Daily Summary

Daily Weather History Graph

Daily Weather History Graph

Search for Another Location

Airport:

Trip Planner

Search our weather history database for the weather conditions in past years. The results will help you decide how hot, cold, wet, or windy it might be!

Date:

Astronomy

Jan. 20, 2012 Rise Set
Actual Time 7:45 AM CST 5:14 PM CST
Civil Twilight 7:14 AM CST 5:45 PM CST
Nautical Twilight 6:39 AM CST 6:20 PM CST
Astronomical Twilight 6:05 AM CST 6:54 PM CST
Moon 5:26 AM CST (1/20) 2:44 PM CST (1/20)
Length of Visible Light 10h 30m
Length of Day
9h 28m
Waning Crescent, 8% of the Moon is Illuminated
Jan 20
Waning Crescent
Jan 23
New
Jan 30
First Quarter
Feb 7
Full
Feb 14
Last Quarter

Hourly Weather History & Observations

Time (CST) Temp. Windchill Dew Point Humidity Pressure Visibility Wind Dir Wind Speed Gust Speed Precip Events Conditions
12:52 AM 3.0 °F -10.5 °F -8.0 °F 60% 30.20 in 10.0 mi South 8.1 mph - N/A   Overcast
1:52 AM 3.9 °F -8.2 °F -8.0 °F 58% 30.17 in 8.0 mi SSE 6.9 mph - N/A   Overcast
2:09 AM 3.2 °F -10.3 °F -5.8 °F 66% 30.06 in 2.0 mi SSE 8.1 mph - 0.00 in Snow Light Snow
2:18 AM 3.2 °F -10.3 °F -4.0 °F 72% 30.06 in 1.5 mi SE 8.1 mph - 0.00 in Snow Light Snow
2:39 AM 3.2 °F -12.2 °F -2.2 °F 78% 30.05 in 1.0 mi SE 10.4 mph - 0.00 in Snow Light Snow
2:52 AM 3.0 °F -12.5 °F -2.0 °F 80% 30.14 in 1.0 mi SE 10.4 mph - 0.00 in Snow Light Snow
3:22 AM 3.2 °F -11.3 °F -0.4 °F 85% 30.03 in 0.8 mi SE 9.2 mph - 0.00 in Snow Light Snow
3:38 AM 3.2 °F -12.2 °F -0.4 °F 85% 30.03 in 1.0 mi SE 10.4 mph - 0.00 in Snow Light Snow
3:52 AM 3.0 °F -12.5 °F -2.0 °F 80% 30.12 in 0.8 mi SE 10.4 mph - 0.01 in Snow Light Snow
4:20 AM 3.2 °F -11.3 °F -0.4 °F 85% 30.02 in 0.8 mi SE 9.2 mph - 0.00 in Snow Light Snow
4:52 AM 3.0 °F -10.5 °F -0.9 °F 84% 30.14 in 0.8 mi SE 8.1 mph - 0.03 in Snow Light Snow
5:52 AM 3.0 °F -13.3 °F -0.9 °F 84% 30.11 in 0.5 mi ESE 11.5 mph - 0.02 in Fog , Snow Snow
6:52 AM 3.0 °F -12.5 °F -0.9 °F 84% 30.09 in 0.5 mi East 10.4 mph - 0.03 in Fog , Snow Snow
7:24 AM 3.2 °F -11.3 °F -0.4 °F 85% 29.98 in 0.5 mi East 9.2 mph - 0.02 in Fog , Snow Snow
7:42 AM 3.2 °F -12.2 °F -0.4 °F 85% 29.98 in 0.5 mi ESE 10.4 mph - 0.03 in Fog , Snow Snow
7:52 AM 3.0 °F -11.5 °F -0.9 °F 84% 30.10 in 0.5 mi ESE 9.2 mph - 0.03 in Fog , Snow Snow
8:52 AM 3.0 °F -9.3 °F -0.0 °F 87% 30.15 in 0.2 mi ESE 6.9 mph - 0.02 in Fog , Snow Snow
9:10 AM 3.2 °F -10.3 °F -0.4 °F 85% 30.04 in 0.5 mi ESE 8.1 mph - 0.00 in Fog , Snow Snow
9:52 AM 3.9 °F -10.4 °F -0.9 °F 80% 30.15 in 0.5 mi East 9.2 mph - 0.01 in Snow Snow
10:37 AM 3.2 °F -12.2 °F -0.4 °F 85% 30.06 in 1.0 mi East 10.4 mph - 0.01 in Snow Light Snow
10:49 AM 3.2 °F -13.1 °F -0.4 °F 85% 30.06 in 0.8 mi East 11.5 mph - 0.01 in Snow Light Snow
10:50 AM 3.9 °F -12.2 °F -0.0 °F 84% 30.16 in 0.5 mi East 11.5 mph - 0.01 in Fog , Snow Snow
11:03 AM 3.2 °F -13.9 °F -0.4 °F 85% 30.06 in 0.8 mi East 12.7 mph - 0.01 in Snow Light Snow
11:13 AM 3.2 °F -14.6 °F -0.4 °F 85% 30.06 in 1.0 mi East 13.8 mph - 0.01 in Snow Light Snow
11:52 AM 5.0 °F -12.3 °F -0.0 °F 80% 30.14 in 1.0 mi East 13.8 mph - 0.01 in Snow Light Snow
12:11 PM 5.0 °F -13.0 °F -0.4 °F 78% 30.04 in 3.0 mi East 15.0 mph - 0.00 in Snow Light Snow
12:36 PM 6.8 °F -9.3 °F -0.4 °F 72% 30.03 in 9.0 mi East 12.7 mph - 0.00 in   Overcast
12:52 PM 6.1 °F -10.2 °F -0.0 °F 76% 30.11 in 10.0 mi East 12.7 mph - 0.00 in   Mostly Cloudy
1:52 PM 6.1 °F -8.7 °F 1.0 °F 80% 30.11 in 10.0 mi ENE 10.4 mph - N/A   Overcast
2:52 PM 7.0 °F -8.3 °F 1.0 °F 77% 30.15 in 8.0 mi NNE 11.5 mph - N/A   Overcast
3:33 PM 6.8 °F -8.6 °F 1.4 °F 79% 30.07 in 2.5 mi NNE 11.5 mph - 0.00 in Snow Light Snow
3:43 PM 6.8 °F -7.8 °F 1.4 °F 79% 30.07 in 1.2 mi NNE 10.4 mph - 0.00 in Snow Light Snow
3:52 PM 7.0 °F -9.1 °F 1.9 °F 80% 30.17 in 2.5 mi North 12.7 mph - 0.00 in Snow Light Snow
3:59 PM 6.8 °F -8.6 °F 1.4 °F 79% 30.08 in 3.0 mi NNE 11.5 mph - 0.00 in Snow Light Snow
4:52 PM 6.1 °F -9.5 °F 1.0 °F 80% 30.20 in 7.0 mi NNE 11.5 mph - 0.00 in   Overcast
5:52 PM 5.0 °F -9.1 °F 1.0 °F 84% 30.22 in 9.0 mi NNE 9.2 mph - N/A   Overcast
6:52 PM 1.9 °F -7.6 °F -2.0 °F 83% 30.25 in 10.0 mi North 4.6 mph - 0.01 in   Clear
7:52 PM -2.9 °F -13.3 °F -6.0 °F 87% 30.25 in 10.0 mi NNW 4.6 mph - N/A   Clear
8:52 PM -4.0 °F -19.0 °F -7.1 °F 87% 30.27 in 10.0 mi North 8.1 mph - N/A   Clear
9:52 PM -8.0 °F -22.5 °F -9.9 °F 91% 30.30 in 10.0 mi NW 6.9 mph - N/A   Clear
10:52 PM -9.0 °F -25.2 °F -11.0 °F 91% 30.31 in 10.0 mi NNW 8.1 mph - N/A   Clear
11:52 PM -11.9 °F -23.8 °F -14.1 °F 90% 30.30 in 10.0 mi NW 4.6 mph - N/A   Clear